Manning, SC

3:13 AM EDT on September 25, 2017 (GMT -0400)
Santee Cooper Regional

Weather History for KMNI - December, 2012

Change the Weather History Date:

Tuesday, December 18, 2012

  Actual Average (KCKI) Record (KCKI)
Temperature  
Mean Temperature 54 °F -  
Max Temperature 68 °F 57 °F 77 °F (2016)
Min Temperature 41 °F 28 °F 32 °F (2011)
Degree Days  
Heating Degree Days 10    
Growing Degree Days 4 (Base 50)    
Moisture  
Dew Point 47 °F    
Average Humidity 71    
Maximum Humidity 100    
Minimum Humidity 11    
Precipitation  
Precipitation 0.00 in - - ()
Sea Level Pressure  
Sea Level Pressure 29.84 in    
Wind  
Wind Speed 6 mph (WSW)    
Max Wind Speed 15 mph    
Max Gust Speed 29 mph    
Visibility 10 miles    
Events      
Averages and records for this station are not official NWS values.
T = Trace of Precipitation, MM = Missing Value Source: NWS Daily Summary

Daily Weather History Graph

Daily Weather History Graph

Search for Another Location

Airport or City:

Trip Planner

Search our weather history database for the weather conditions in past years. The results will help you decide how hot, cold, wet, or windy it might be!

Date:

Astronomy

Dec. 18, 2012 Rise Set
Actual Time 7:19 AM EST 5:15 PM EST
Civil Twilight 6:52 AM EST 5:43 PM EST
Nautical Twilight 6:21 AM EST 6:14 PM EST
Astronomical Twilight 5:50 AM EST 6:44 PM EST
Moon 11:14 AM EST (12/18) 11:22 PM EST (12/18)
Length of Visible Light 10h 50m
Length of Day
9h 55m
Waxing Crescent, 34% of the Moon is Illuminated
Dec 18
Waxing Crescent
Dec 20
First Quarter
Dec 28
Full
Jan 4
Last Quarter
Jan 11
New

Hourly Weather History & Observations

Time (EST) Temp. Dew Point Humidity Pressure Visibility Wind Dir Wind Speed Gust Speed Precip Events Conditions
12:15 AM 60.8 °F 60.8 °F 100% 29.75 in 10.0 mi South 4.6 mph - N/A   Overcast
12:35 AM 60.8 °F 60.8 °F 100% 29.75 in 10.0 mi SW 6.9 mph - N/A   Overcast
12:55 AM 60.8 °F 60.8 °F 100% 29.76 in 10.0 mi SW 5.8 mph - N/A   Overcast
1:15 AM 60.8 °F 60.8 °F 100% 29.76 in 10.0 mi SW 4.6 mph - N/A   Overcast
1:35 AM 60.8 °F 60.8 °F 100% 29.76 in 10.0 mi SSW 6.9 mph - N/A   Overcast
1:55 AM 60.8 °F 60.8 °F 100% 29.77 in 10.0 mi SW 5.8 mph - N/A   Overcast
2:15 AM 60.8 °F 60.8 °F 100% 29.77 in 10.0 mi SW 4.6 mph - N/A   Overcast
2:35 AM 60.8 °F 60.8 °F 100% 29.77 in 10.0 mi SW 3.5 mph - N/A   Mostly Cloudy
2:55 AM 60.8 °F 60.8 °F 100% 29.75 in 10.0 mi SSW 4.6 mph - N/A   Scattered Clouds
3:15 AM 59.0 °F 59.0 °F 100% 29.75 in 10.0 mi SSW 3.5 mph - N/A   Scattered Clouds
3:35 AM 59.0 °F 59.0 °F 100% 29.75 in 10.0 mi Calm Calm - N/A   Scattered Clouds
3:55 AM 59.0 °F 59.0 °F 100% 29.75 in 7.0 mi Calm Calm - N/A   Clear
4:15 AM 57.2 °F 57.2 °F 100% 29.75 in 7.0 mi Calm Calm - N/A   Mostly Cloudy
4:35 AM 59.0 °F 59.0 °F 100% 29.76 in 10.0 mi SW 3.5 mph - N/A   Mostly Cloudy
4:55 AM 59.0 °F 59.0 °F 100% 29.75 in 10.0 mi SW 4.6 mph - N/A   Mostly Cloudy
5:15 AM 59.0 °F 59.0 °F 100% 29.75 in 10.0 mi SW 4.6 mph - N/A   Scattered Clouds
5:35 AM 59.0 °F 59.0 °F 100% 29.76 in 10.0 mi SW 6.9 mph - N/A   Scattered Clouds
5:55 AM 59.0 °F 59.0 °F 100% 29.76 in 10.0 mi SW 4.6 mph - N/A   Scattered Clouds
6:15 AM 59.0 °F 59.0 °F 100% 29.76 in 10.0 mi SW 5.8 mph - N/A   Mostly Cloudy
6:35 AM 59.0 °F 59.0 °F 100% 29.77 in 10.0 mi SW 3.5 mph - N/A   Mostly Cloudy
6:55 AM 59.0 °F 59.0 °F 100% 29.77 in 7.0 mi SW 6.9 mph - N/A   Scattered Clouds
7:15 AM 59.0 °F 59.0 °F 100% 29.78 in 10.0 mi SW 6.9 mph - N/A   Scattered Clouds
7:35 AM 59.0 °F 59.0 °F 100% 29.79 in 10.0 mi SW 5.8 mph - N/A   Mostly Cloudy
7:55 AM 59.0 °F 59.0 °F 100% 29.80 in 7.0 mi WSW 4.6 mph - N/A   Mostly Cloudy
8:15 AM 59.0 °F 59.0 °F 100% 29.80 in 7.0 mi SW 5.8 mph - N/A   Mostly Cloudy
8:35 AM 60.8 °F 59.0 °F 94% 29.80 in 10.0 mi WSW 6.9 mph - N/A   Mostly Cloudy
8:55 AM 60.8 °F 59.0 °F 94% 29.80 in 10.0 mi SW 5.8 mph - N/A   Mostly Cloudy
9:15 AM 60.8 °F 59.0 °F 94% 29.80 in 10.0 mi SW 8.1 mph - N/A   Mostly Cloudy
9:35 AM 62.6 °F 59.0 °F 88% 29.80 in 10.0 mi WSW 9.2 mph - N/A   Scattered Clouds
9:55 AM 62.6 °F 55.4 °F 77% 29.80 in 10.0 mi WSW 8.1 mph 17.3 mph N/A   Scattered Clouds
10:15 AM 62.6 °F 53.6 °F 72% 29.80 in 10.0 mi WSW 10.4 mph 16.1 mph N/A   Clear
10:35 AM 64.4 °F 51.8 °F 64% 29.80 in 10.0 mi WSW 11.5 mph 18.4 mph N/A   Scattered Clouds
10:55 AM 64.4 °F 50.0 °F 59% 29.80 in 10.0 mi WSW 15.0 mph 23.0 mph N/A   Clear
11:15 AM 64.4 °F 50.0 °F 59% 29.80 in 10.0 mi West 12.7 mph 17.3 mph N/A   Clear
11:35 AM 64.4 °F 48.2 °F 56% 29.80 in 10.0 mi WSW 15.0 mph 23.0 mph N/A   Scattered Clouds
11:55 AM 66.2 °F 46.4 °F 49% 29.80 in 10.0 mi WSW 13.8 mph 21.9 mph N/A   Scattered Clouds
12:15 PM 66.2 °F 44.6 °F 46% 29.79 in 10.0 mi WSW 12.7 mph 20.7 mph N/A   Clear
12:35 PM 66.2 °F 39.2 °F 37% 29.79 in 10.0 mi West 12.7 mph 24.2 mph N/A   Clear
12:55 PM 66.2 °F 39.2 °F 37% 29.80 in 10.0 mi West 13.8 mph 28.8 mph N/A   Clear
1:15 PM 68.0 °F 39.2 °F 35% 29.79 in 10.0 mi WSW 13.8 mph 23.0 mph N/A   Clear
1:35 PM 68.0 °F 37.4 °F 33% 29.80 in 10.0 mi WNW 12.7 mph 19.6 mph N/A   Clear
1:55 PM 66.2 °F 37.4 °F 35% 29.80 in 10.0 mi West 12.7 mph 26.5 mph N/A   Clear
2:15 PM 68.0 °F 37.4 °F 33% 29.80 in 10.0 mi West 13.8 mph 24.2 mph N/A   Clear
2:35 PM 68.0 °F 37.4 °F 33% 29.81 in 10.0 mi West 9.2 mph 21.9 mph N/A   Clear
2:55 PM 66.2 °F 37.4 °F 35% 29.83 in 10.0 mi WNW 12.7 mph 18.4 mph N/A   Clear
3:15 PM 66.2 °F 39.2 °F 37% 29.84 in 10.0 mi West 9.2 mph 18.4 mph N/A   Clear
3:35 PM 64.4 °F 39.2 °F 40% 29.85 in 10.0 mi West 11.5 mph 18.4 mph N/A   Clear
3:55 PM 64.4 °F 39.2 °F 40% 29.86 in 10.0 mi West 11.5 mph 17.3 mph N/A   Clear
4:15 PM 64.4 °F 39.2 °F 40% 29.87 in 10.0 mi West 11.5 mph 18.4 mph N/A   Clear
4:35 PM 62.6 °F 41.0 °F 45% 29.87 in 10.0 mi WNW 6.9 mph - N/A   Clear
4:55 PM 62.6 °F 41.0 °F 45% 29.89 in 10.0 mi WNW 6.9 mph - N/A   Clear
5:15 PM 60.8 °F 41.0 °F 48% 29.90 in 7.0 mi WNW 5.8 mph - N/A   Clear
5:35 PM 60.8 °F 41.0 °F 48% 29.90 in 10.0 mi West 3.5 mph - N/A   Clear
5:55 PM 59.0 °F 39.2 °F 48% 29.91 in 10.0 mi West 3.5 mph - N/A   Clear
6:15 PM 59.0 °F 39.2 °F 48% 29.92 in 10.0 mi WSW 3.5 mph - N/A   Clear
6:35 PM 59.0 °F 39.2 °F 48% 29.93 in 10.0 mi West 3.5 mph - N/A   Clear
6:55 PM 55.4 °F 41.0 °F 58% 29.94 in 10.0 mi Calm Calm - N/A   Clear
7:15 PM 55.4 °F 39.2 °F 54% 29.95 in 10.0 mi Calm Calm - N/A   Clear
7:35 PM 55.4 °F 39.2 °F 54% 29.95 in 10.0 mi Calm Calm - N/A   Clear
7:55 PM 53.6 °F 39.2 °F 58% 29.96 in 10.0 mi West 3.5 mph - N/A   Clear
8:15 PM 53.6 °F 32.0 °F 44% 29.96 in 10.0 mi WNW 3.5 mph - N/A   Clear
8:35 PM 48.2 °F -4.0 °F 11% 29.97 in 10.0 mi Calm Calm - N/A   Clear
8:55 PM 46.4 °F 28.4 °F 50% 29.97 in 10.0 mi Calm Calm - N/A   Clear
9:15 PM 44.6 °F 26.6 °F 49% 29.98 in 10.0 mi Calm Calm - N/A   Clear
9:35 PM 44.6 °F 32.0 °F 61% 29.98 in 10.0 mi Calm Calm - N/A   Clear
9:55 PM 44.6 °F 33.8 °F 66% 29.98 in 10.0 mi Calm Calm - N/A   Clear
10:15 PM 42.8 °F 32.0 °F 66% 29.99 in 10.0 mi Calm Calm - N/A   Clear
10:35 PM 42.8 °F 33.8 °F 70% 29.99 in 10.0 mi Calm Calm - N/A   Clear
10:55 PM 42.8 °F 33.8 °F 70% 30.00 in 10.0 mi Calm Calm - N/A   Clear
11:15 PM 42.8 °F 39.2 °F 87% 30.00 in 10.0 mi Calm Calm - N/A   Clear
11:35 PM 41.0 °F 39.2 °F 93% 30.00 in 10.0 mi Calm Calm - N/A   Clear
11:55 PM 41.0 °F 37.4 °F 87% 30.00 in 10.0 mi Calm Calm - N/A   Clear